EHI
0 0 0 0 0 0 0 0 0 0 0 0 0 0 0 0 0 0 0 0 0 0 0 0 0 0 0 0 0 0 0 1 2 1 0 0 0 0 0 0 0 0 0
1 0 0 0 0 0 0 0 0 0 0 0 0 0 0 0 0 0 0 0 0 0 0 0 0 0 0 0 0 0 0 1 1 1 0 0 0 0 0 0 0 0 0
1 0 0 1 1 1 2 1 0 0 0 0 0 0 0 0 0 0 0 0 0 0 0 0 0 0 0 0 0 0 0 0 0 0 0 0 0 0 0 0 0 0 0
1 0 1 2 2 3 3 2 0 0 0 0 0 0 0 0 0 0 0 0 0 0 0 0 0 0 0 0 0 0 0 0 0 0 0 0 0 0 0 0 0 0 0
0 1 2 3 3 3 3 2 0 0 0 0 0 0 0 0 0 0 0 0 0 0 0 0 0 0 0 0 0 0 0 0 0 0 0 1 1 0 0 0 0 0 0
0 1 3 3 3 3 2 1 0 0 0 0 0 0 0 0 0 0 0 0 0 0 0 0 0 0 0 0 0 0 0 0 0 1 1 1 2 1 1 1 1 0 0
1 2 2 2 2 2 1 1 0 0 0 0 0 0 0 0 0 0 0 0 0 0 0 0 0 0 0 0 0 0 0 0 0 0 0 1 1 1 2 3 2 1 0
1 1 1 1 1 1 0 0 0 0 0 0 0 0 0 0 0 0 0 0 0 0 0 0 0 0 0 0 0 0 0 0 0 0 0 0 0 1 2 3 2 1 0
0 0 0 0 0 0 0 0 0 0 0 0 0 0 0 0 0 0 0 0 0 0 0 0 0 0 0 0 0 0 0 0 0 0 0 0 0 0 1 2 2 1 0
0 0 0 0 0 0 0 0 0 0 0 0 0 0 0 0 0 0 0 0 0 0 0 0 0 0 0 0 0 0 0 0 0 0 0 0 0 0 0 1 1 1 0
0 0 0 0 0 0 0 0 0 0 0 0 0 0 0 0 0 0 0 0 0 0 0 0 0 0 0 0 0 0 0 0 0 0 0 0 0 0 0 0 0 0 0
0 0 0 0 0 0 0 0 0 0 0 0 0 0 0 0 0 0 0 0 0 0 0 0 0 0 0 0 0 0 0 0 0 0 0 0 0 0 0 0 0 0 0
0 0 0 0 0 0 0 0 0 0 0 0 0 0 0 0 0 0 0 0 0 0 0 0 0 0 0 0 0 0 0 0 0 0 0 0 0 0 0 0 0 0 0
0 0 0 0 0 0 0 0 0 0 0 0 0 0 0 0 0 0 0 0 0 0 0 0 0 0 0 0 0 0 0 0 0 0 0 0 0 0 0 0 0 0 0
0 0 0 0 0 0 0 0 0 0 0 0 0 0 0 0 0 0 0 0 0 0 0 0 0 0 0 0 0 0 0 0 0 0 0 0 0 0 0 0 0 0 0
0 0 0 0 0 0 0 0 0 0 0 0 0 0 0 0 0 0 0 0 0 0 0 0 0 0 0 0 0 0 0 0 0 0 0 0 0 0 0 0 0 0 0
0 0 0 0 0 0 0 0 0 0 0 0 0 0 0 0 0 0 0 0 0 0 0 0 0 0 0 0 0 0 0 0 0 0 0 0 0 0 0 0 0 0 0
0 0 0 0 0 0 0 0 0 0 0 0 0 0 0 0 0 0 0 0 0 0 0 0 0 0 0 0 0 0 0 0 0 0 0 0 0 0 0 0 0 0 0
0 0 0 0 0 0 0 0 0 0 0 0 0 0 0 0 0 0 0 0 0 0 0 0 0 0 0 0 0 0 0 0 0 0 0 0 0 0 0 0 0 0 0
0 0 0 0 0 0 0 0 0 0 0 0 0 0 0 0 0 0 0 0 0 0 0 0 0 0 0 0 0 0 0 0 0 0 0 0 0 0 0 0 0 0 0
0 0 0 0 0 0 0 0 0 0 0 0 0 0 0 0 0 0 0 0 0 0 0 0 0 0 0 0 0 0 0 0 0 0 0 0 0 0 0 0 0 0 0
0 0 0 0 0 0 0 0 0 0 0 0 0 0 0 0 0 0 0 0 0 0 0 0 0 0 0 0 0 0 0 0 0 0 0 0 0 0 0 0 0 0 0
0 0 0 0 0 0 0 0 0 0 0 0 0 0 0 0 0 0 0 0 0 0 0 0 0 0 0 0 0 0 0 0 0 0 0 0 0 0 0 0 0 0 0
0 0 0 0 0 0 0 0 0 0 0 0 0 0 0 0 0 0 0 0 0 0 0 0 0 0 0 0 0 0 0 0 0 0 0 0 0 0 0 0 0 0 0
0 0 0 0 0 0 0 0 0 0 0 0 0 0 0 0 0 0 0 0 0 0 0 0 0 0 0 0 0 0 0 0 0 0 0 0 0 0 0 0 0 0 0
0 0 0 0 0 0 0 0 0 0 0 0 0 0 0 0 0 0 0 0 0 0 0 0 0 0 0 0 0 0 0 0 0 0 0 0 0 0 0 0 0 0 0
Wind_Speed
3 3 2 2 2 2 1 1 2 2 3 3 3 3 4 4 4 4 4 4 4 4 4 4 4 4 4 4 4 4 4 4 4 3 2 1 2 3 2 2 2 2 1
4 3 3 3 2 1 1 1 1 2 2 3 3 3 4 4 4 4 5 4 4 4 5 5 5 4 4 4 4 4 3 3 3 3 3 2 2 3 2 3 2 2 1
5 4 4 3 2 2 1 1 1 1 2 2 3 3 4 4 4 4 4 4 4 4 4 5 5 5 5 4 5 4 3 3 3 3 3 3 2 2 3 3 2 2 3
5 4 4 3 2 1 1 1 1 1 2 2 3 3 3 4 4 5 4 4 4 4 4 4 4 5 5 5 4 4 3 3 3 3 3 3 2 2 3 2 2 2 2
5 4 4 3 2 2 1 1 1 1 2 2 2 3 3 3 4 6 5 4 4 4 4 4 4 4 5 5 5 4 3 3 3 3 3 3 2 2 2 2 2 2 2
5 4 3 3 3 2 1 1 1 1 2 2 3 3 3 3 5 6 7 5 4 4 4 4 3 2 2 3 4 5 5 4 4 4 3 3 3 3 2 3 2 3 2
5 4 4 3 2 2 1 0 0 1 2 2 3 3 3 3 3 5 6 6 4 4 4 4 4 3 3 3 2 5 4 5 6 6 5 4 4 3 3 4 3 3 3
5 4 3 3 2 1 1 1 0 1 2 2 3 4 4 3 2 4 6 5 4 4 4 4 4 4 4 5 4 3 2 2 4 5 4 5 4 4 4 5 4 4 4
4 3 3 2 2 2 1 0 0 1 2 2 3 3 4 3 1 3 6 4 3 3 4 4 4 4 3 5 4 3 3 2 2 4 4 4 5 5 4 4 4 4 3
4 3 2 2 2 1 1 1 1 1 2 3 3 3 4 4 2 3 5 4 3 3 2 2 1 3 4 5 4 4 3 3 3 2 3 5 6 6 7 6 5 5 4
4 3 2 2 2 2 2 1 2 3 3 4 3 3 3 3 2 2 4 4 5 5 4 3 2 1 4 5 6 4 4 5 5 4 3 2 3 3 4 5 4 4 5
4 3 3 2 2 2 2 2 3 3 4 4 3 4 2 2 2 1 3 5 6 5 5 4 3 3 4 6 5 3 4 5 4 3 3 3 2 2 2 3 3 4 5
5 3 3 2 2 2 2 3 3 4 4 3 3 3 3 2 1 4 5 6 6 5 4 5 7 7 7 6 6 6 6 5 4 3 3 3 3 3 3 3 5 5 6
5 4 3 3 2 2 3 3 3 3 3 3 3 3 3 3 3 2 2 3 5 5 5 5 7 9 7 5 4 5 5 4 3 4 4 3 3 3 4 4 4 4 4
4 3 3 3 2 2 3 2 3 3 4 5 5 5 4 4 4 6 6 5 5 5 7 6 5 3 3 3 3 2 2 3 3 3 4 4 3 4 4 3 4 5 5
4 4 3 3 2 2 2 2 3 5 4 6 8 8 5 4 5 7 7 7 7 6 6 6 5 4 4 4 4 4 3 3 3 4 4 4 4 4 4 4 4 5 5
4 3 3 2 2 2 2 3 2 3 7 9 9 9 9 8 8 8 8 8 7 5 6 5 4 4 4 4 4 5 5 3 3 4 4 4 5 5 5 5 5 6 6
5 4 4 3 3 3 3 3 3 4 3 3 6 10 10 9 9 8 7 6 5 5 5 5 5 5 5 5 5 5 5 4 4 4 4 5 5 5 6 6 6 6 6
5 4 3 3 3 3 3 3 3 4 4 4 3 3 7 8 9 7 6 5 5 5 4 5 5 5 5 5 5 5 5 5 5 5 5 6 6 6 6 6 6 6 7
5 3 4 4 4 3 3 3 3 3 4 4 4 3 2 4 4 3 4 5 5 5 6 6 5 6 5 5 5 6 6 6 6 6 6 6 6 6 7 7 7 7 7
4 4 7 6 4 3 3 4 4 4 4 4 4 3 3 5 6 5 5 5 5 6 6 6 6 6 6 5 6 6 7 6 6 6 6 6 6 6 6 7 7 7 7
4 3 4 4 4 3 4 4 5 5 5 5 5 3 4 6 6 6 5 5 5 5 6 6 6 6 6 6 6 6 7 6 6 6 6 7 6 7 7 7 7 7 7
5 5 4 4 4 4 6 5 5 5 5 5 5 5 5 5 6 6 6 6 6 6 6 5 6 6 6 6 6 6 7 7 7 7 7 7 7 7 7 7 9 9 8
5 5 5 4 5 5 5 5 5 5 6 6 6 6 6 6 6 7 7 6 6 6 6 6 7 8 9 7 6 6 5 5 7 7 9 8 9 8 8 8 9 10 9
5 5 5 5 5 5 5 5 6 6 6 6 6 7 7 7 7 7 7 7 7 7 8 8 7 7 9 9 8 7 4 3 5 7 8 8 9 9 9 10 9 9 9
5 5 5 5 5 5 5 6 6 6 6 6 6 7 7 7 7 7 7 7 7 7 8 8 9 9 9 8 8 5 3 3 4 5 7 8 8 8 9 8 10 10 10
Wind_Direction
141 126 116 116 111 111 79 55 42 19 1 352 351 347 347 348 345 329 319 316 312 311 299 292 292 296 291 284 275 263 256 262 269 282 282 271 275 281 275 279 279 258 183
141 129 119 114 111 99 73 56 41 18 1 3 356 358 354 351 339 330 329 331 324 318 316 312 307 303 292 289 288 282 274 268 261 267 276 264 258 261 264 267 271 276 265
147 142 131 130 120 99 69 54 39 21 5 1 4 3 358 351 345 339 335 334 331 329 325 319 314 311 304 299 289 283 279 269 252 246 259 262 256 251 250 250 250 258 254
153 149 142 137 129 117 85 68 49 25 13 9 0 353 347 349 352 346 340 335 329 329 328 322 319 317 314 310 296 283 280 274 257 244 248 244 249 246 253 248 246 238 257
162 154 142 138 135 130 103 68 38 17 4 1 346 343 348 350 359 343 331 331 326 325 327 328 337 338 333 314 308 303 289 273 263 254 251 250 249 248 259 267 271 272 246
165 159 146 148 147 140 128 96 30 1 352 346 341 340 346 3 12 335 316 320 318 317 322 329 325 319 309 276 285 291 288 280 278 268 261 260 256 254 264 269 270 270 265
166 160 155 154 150 155 157 148 17 343 339 336 334 335 343 8 352 324 313 304 309 316 320 319 321 343 312 317 281 242 245 247 255 268 269 270 266 264 265 268 269 281 293
166 161 157 160 148 146 153 125 302 310 321 317 322 330 332 356 353 319 308 290 309 318 322 314 310 319 350 332 314 305 294 265 250 248 263 268 270 268 260 263 266 256 250
165 163 161 167 162 171 161 158 265 287 296 292 301 317 322 334 342 312 302 298 309 318 317 321 319 325 357 319 302 304 302 286 244 242 260 272 286 273 266 264 254 248 250
170 170 174 181 183 185 180 243 255 270 276 282 298 308 314 323 352 313 303 298 317 317 311 300 317 309 326 314 298 299 299 301 300 266 235 234 240 231 225 241 260 263 269
171 175 179 185 195 199 208 243 266 270 280 288 299 295 290 301 272 269 289 298 317 320 323 327 357 355 303 303 290 288 295 299 289 277 265 252 239 239 227 224 243 265 279
171 179 182 192 211 191 210 242 261 267 261 260 267 276 279 264 271 237 255 269 293 302 310 320 346 350 309 293 282 282 282 276 271 275 276 273 268 266 260 254 251 262 269
173 179 184 192 215 228 245 254 256 254 263 272 279 289 299 302 233 209 231 249 258 272 301 320 311 300 289 265 238 249 257 254 262 268 272 273 277 277 265 251 242 237 242
178 180 189 202 215 217 246 254 270 284 290 294 297 300 305 298 304 298 273 248 236 247 272 275 254 255 258 273 260 233 240 258 270 273 277 275 268 257 251 254 256 252 254
181 190 208 219 216 241 246 273 282 302 315 299 304 304 302 308 1 353 319 311 320 334 322 293 286 282 281 281 284 281 270 253 251 261 270 269 264 263 263 256 258 262 261
188 199 216 224 221 238 240 243 221 242 254 252 257 273 293 290 299 299 299 295 295 302 291 280 290 295 297 303 303 293 274 271 274 272 271 274 276 274 270 265 261 263 265
204 213 238 246 240 246 255 266 275 244 229 235 239 242 248 270 279 281 284 289 280 258 256 272 285 293 293 291 289 288 287 284 281 274 270 273 276 275 273 270 268 267 268
211 206 228 238 251 257 260 267 274 282 282 264 224 221 230 244 255 263 269 275 256 231 254 275 285 286 287 288 286 285 283 278 268 269 272 272 271 272 273 273 271 270 272
215 216 225 248 254 255 258 266 273 278 285 292 295 216 211 227 231 241 235 253 276 282 280 279 282 283 283 285 287 285 283 279 277 277 275 275 276 275 275 276 277 272 267
214 213 239 253 252 254 256 268 277 281 282 289 294 301 282 262 265 246 228 255 275 286 292 293 293 293 289 286 283 278 274 272 272 269 272 273 272 271 273 274 276 276 269
218 192 200 238 251 260 267 275 283 287 291 297 298 313 302 290 292 291 286 281 283 291 296 296 292 287 283 282 282 282 280 277 277 277 277 276 275 273 274 272 271 273 277
233 230 223 242 254 262 276 277 281 286 292 296 298 289 220 263 287 294 294 294 293 290 289 291 292 293 294 290 288 285 284 282 281 278 279 278 273 271 270 269 270 276 279
233 239 237 243 256 253 257 267 278 287 292 296 301 306 299 296 300 298 296 296 294 293 292 288 284 286 288 284 282 282 285 290 294 297 290 283 279 276 275 275 276 276 277
236 244 250 250 256 263 269 276 280 285 291 295 298 301 301 300 297 297 295 293 293 293 294 292 287 288 290 288 283 278 282 293 296 290 287 285 284 282 280 277 274 274 274
242 249 257 259 263 269 275 279 282 286 290 295 298 300 300 298 297 296 295 296 297 295 297 296 291 291 294 294 294 298 325 319 294 297 290 283 280 280 280 279 279 280 277
246 252 260 266 268 273 277 279 282 286 289 292 295 298 299 298 298 300 302 303 304 302 300 297 296 297 295 289 293 301 296 283 279 278 281 280 281 280 283 282 283 282 282